User: anonymous   Login
Location: Unspecified
(0.0000°N, 0.0000°E)
Time: 10:14:18
(UTC+00:00)
Language:

OPTOS - Orbit

View from above orbital plane
View from above orbital plane
View from above satellite
View from above satellite

Ground track
Ground track

The orbit data is extracted from the following two-line orbital elements,

1 39429U 13066P   19082.10755420  .00000263  00000-0  54868-4 0  9993
2 39429  97.7266  48.0951 0146435 156.7536 204.0370 14.60924075284119
Epoch (UTC): 23 March 2019 02:34:52
Eccentricity: 0.0146435
inclination: 97.7266°
perigee height: 586 km
apogee height: 794 km
right ascension of ascending node: 48.0951°
argument of perigee: 156.7536°
revolutions per day: 14.60924075
mean anomaly at epoch: 204.0370°
orbit number at epoch: 28411

The dashed part of the orbit path shows where the satellite is in the earth's shadow,  

DLR